When you browse on this site, cookies collect data to enhance your experience and personalize the content and advertising you see.
Visit our Privacy Policy to learn more. By continuing to use the site, you agree to this use of cookies and data.
  • In Romania
  • List of Countries
  • For 7 days
  • Water Temperature
  • Satellite Maps
  • Weather Map
  • Weather Widgets
  • user-avatar
    Login

    Hourly Weather Arriba

    Today, 25 April, Thursday

    Time Temperature Precipitation Wind Pressure Humidity
    00:00 +16°C° 0.7 mm 9 mps 752 mmHg 88%
    01:00 +15°C° 0.3 mm 7 mps 752 mmHg 88%
    02:00 +15°C° 0.3 mm 6 mps 752 mmHg 89%
    03:00 +14°C° 0.3 mm 5 mps 752 mmHg 90%
    04:00 +13°C° 0 mm 5 mps 752 mmHg 90%
    05:00 +13°C° 0 mm 4 mps 753 mmHg 89%
    06:00 +12°C° 0 mm 4 mps 753 mmHg 89%
    07:00 +13°C° 0 mm 5 mps 754 mmHg 80%
    08:00 +14°C° 0 mm 6 mps 754 mmHg 70%
    09:00 +16°C° 0 mm 7 mps 755 mmHg 61%
    10:00 +16°C° 0 mm 6 mps 755 mmHg 57%
    11:00 +17°C° 0 mm 6 mps 756 mmHg 54%
    12:00 +17°C° 0 mm 6 mps 756 mmHg 50%
    13:00 +17°C° 0 mm 6 mps 756 mmHg 50%
    14:00 +19°C° 0 mm 6 mps 756 mmHg 49%
    15:00 +19°C° 0 mm 6 mps 757 mmHg 49%
    16:00 +17°C° 0 mm 6 mps 757 mmHg 48%
    17:00 +17°C° 0 mm 6 mps 757 mmHg 48%
    18:00 +17°C° 0 mm 5 mps 757 mmHg 48%
    19:00 +15°C° 0 mm 5 mps 758 mmHg 53%
    20:00 +14°C° 0 mm 5 mps 759 mmHg 58%
    21:00 +12°C° 0 mm 4 mps 760 mmHg 64%
    22:00 +12°C° 0 mm 4 mps 760 mmHg 67%
    23:00 +11°C° 0 mm 4 mps 761 mmHg 70%

    Tomorrow, 26 April, Friday

    Time Temperature Precipitation Wind Pressure Humidity
    00:00 +10°C° 0 mm 3 mps 761 mmHg 73%
    01:00 +10°C° 0 mm 3 mps 761 mmHg 74%
    02:00 +9°C° 0 mm 3 mps 761 mmHg 75%
    03:00 +9°C° 0 mm 3 mps 761 mmHg 76%
    04:00 +9°C° 0 mm 3 mps 761 mmHg 78%
    05:00 +8°C° 0 mm 2 mps 761 mmHg 79%
    06:00 +8°C° 0 mm 2 mps 762 mmHg 81%
    07:00 +10°C° 0 mm 2 mps 762 mmHg 73%
    08:00 +14°C° 0 mm 2 mps 762 mmHg 64%
    09:00 +16°C° 0 mm 2 mps 763 mmHg 56%
    10:00 +18°C° 0 mm 2 mps 762 mmHg 50%
    11:00 +19°C° 0 mm 2 mps 762 mmHg 44%
    12:00 +21°C° 0 mm 2 mps 762 mmHg 39%
    13:00 +23°C° 0 mm 2 mps 762 mmHg 36%
    14:00 +24°C° 0 mm 2 mps 761 mmHg 34%
    15:00 +25°C° 0 mm 2 mps 761 mmHg 31%
    16:00 +24°C° 0 mm 2 mps 760 mmHg 34%
    17:00 +24°C° 0 mm 3 mps 760 mmHg 37%
    18:00 +22°C° 0 mm 3 mps 760 mmHg 40%
    19:00 +20°C° 0 mm 3 mps 760 mmHg 45%
    20:00 +18°C° 0 mm 3 mps 761 mmHg 50%
    21:00 +15°C° 0 mm 4 mps 761 mmHg 55%
    22:00 +15°C° 0 mm 4 mps 761 mmHg 55%
    23:00 +14°C° 0 mm 4 mps 761 mmHg 56%

    Day after tomorrow, 27 April, Saturday

    Time Temperature Precipitation Wind Pressure Humidity
    00:00 +13°C° 0 mm 4 mps 761 mmHg 56%
    01:00 +13°C° 0 mm 4 mps 761 mmHg 56%
    02:00 +13°C° 0 mm 4 mps 761 mmHg 56%
    03:00 +12°C° 0 mm 4 mps 760 mmHg 56%
    04:00 +12°C° 0 mm 4 mps 760 mmHg 56%
    05:00 +12°C° 0 mm 4 mps 760 mmHg 57%
    06:00 +12°C° 0 mm 4 mps 760 mmHg 57%
    07:00 +15°C° 0 mm 5 mps 760 mmHg 52%
    08:00 +17°C° 0 mm 5 mps 760 mmHg 47%
    09:00 +20°C° 0 mm 6 mps 760 mmHg 42%
    10:00 +22°C° 0 mm 6 mps 760 mmHg 39%
    11:00 +24°C° 0 mm 6 mps 760 mmHg 36%
    12:00 +27°C° 0 mm 6 mps 760 mmHg 33%
    13:00 +27°C° 0 mm 5 mps 759 mmHg 32%
    14:00 +28°C° 0 mm 5 mps 759 mmHg 31%
    15:00 +29°C° 0 mm 5 mps 758 mmHg 29%
    16:00 +28°C° 0 mm 4 mps 758 mmHg 32%
    17:00 +27°C° 0 mm 4 mps 758 mmHg 35%
    18:00 +26°C° 0 mm 3 mps 758 mmHg 37%
    19:00 +24°C° 0 mm 2 mps 758 mmHg 43%
    20:00 +21°C° 0 mm 2 mps 758 mmHg 48%
    21:00 +20°C° 0 mm 1 mps 759 mmHg 54%
    22:00 +19°C° 0 mm 1 mps 759 mmHg 56%
    23:00 +18°C° 0 mm 1 mps 758 mmHg 58%

    28 April, Sunday

    Time Temperature Precipitation Wind Pressure Humidity
    00:00 +18°C° 0 mm 1 mps 758 mmHg 60%
    01:00 +16°C° 0 mm 1 mps 758 mmHg 59%
    02:00 +16°C° 0 mm 1 mps 757 mmHg 59%
    03:00 +15°C° 0 mm 1 mps 757 mmHg 59%
    04:00 +15°C° 0 mm 2 mps 757 mmHg 58%
    05:00 +15°C° 0 mm 2 mps 756 mmHg 58%
    06:00 +13°C° 0 mm 3 mps 756 mmHg 58%
    07:00 +17°C° 0 mm 4 mps 756 mmHg 53%
    08:00 +19°C° 0 mm 4 mps 756 mmHg 47%
    09:00 +21°C° 0 mm 5 mps 756 mmHg 42%
    10:00 +23°C° 0 mm 5 mps 756 mmHg 37%
    11:00 +26°C° 0 mm 4 mps 756 mmHg 32%
    12:00 +28°C° 0 mm 4 mps 756 mmHg 26%
    13:00 +28°C° 0 mm 4 mps 755 mmHg 26%
    14:00 +29°C° 0 mm 3 mps 755 mmHg 25%
    15:00 +29°C° 0 mm 3 mps 754 mmHg 24%
    16:00 +29°C° 0 mm 3 mps 754 mmHg 28%
    17:00 +28°C° 0 mm 3 mps 754 mmHg 32%
    18:00 +27°C° 0 mm 2 mps 753 mmHg 36%
    19:00 +24°C° 0 mm 2 mps 754 mmHg 40%
    20:00 +21°C° 0 mm 2 mps 754 mmHg 44%
    21:00 +19°C° 0 mm 2 mps 754 mmHg 47%
    22:00 +19°C° 0 mm 1 mps 754 mmHg 50%
    23:00 +19°C° 0 mm 1 mps 754 mmHg 52%

    29 April, Monday

    Time Temperature Precipitation Wind Pressure Humidity
    00:00 +18°C° 0 mm 1 mps 754 mmHg 54%
    01:00 +16°C° 0 mm 1 mps 754 mmHg 55%
    02:00 +16°C° 0 mm 1 mps 754 mmHg 57%
    03:00 +16°C° 0 mm 1 mps 753 mmHg 58%
    04:00 +15°C° 0 mm 2 mps 753 mmHg 57%
    05:00 +15°C° 0 mm 2 mps 753 mmHg 57%
    06:00 +14°C° 0 mm 3 mps 753 mmHg 56%
    07:00 +17°C° 0 mm 3 mps 753 mmHg 50%
    08:00 +19°C° 0 mm 3 mps 753 mmHg 43%
    09:00 +21°C° 0 mm 3 mps 753 mmHg 36%
    10:00 +24°C° 0 mm 3 mps 753 mmHg 33%
    11:00 +26°C° 0 mm 2 mps 753 mmHg 30%
    12:00 +27°C° 0 mm 2 mps 753 mmHg 28%
    13:00 +28°C° 0 mm 2 mps 752 mmHg 27%
    14:00 +28°C° 0 mm 2 mps 752 mmHg 27%
    15:00 +29°C° 0 mm 3 mps 751 mmHg 26%
    16:00 +28°C° 0 mm 3 mps 751 mmHg 31%
    17:00 +26°C° 0 mm 3 mps 751 mmHg 35%
    18:00 +25°C° 0 mm 4 mps 751 mmHg 40%
    19:00 +22°C° 0 mm 3 mps 751 mmHg 46%
    20:00 +20°C° 0 mm 3 mps 752 mmHg 52%
    21:00 +18°C° 0 mm 3 mps 752 mmHg 58%
    22:00 +18°C° 0 mm 3 mps 752 mmHg 61%
    23:00 +17°C° 0 mm 2 mps 752 mmHg 65%

    30 April, Tuesday

    Time Temperature Precipitation Wind Pressure Humidity
    00:00 +17°C° 0 mm 2 mps 752 mmHg 69%
    01:00 +16°C° 0 mm 2 mps 752 mmHg 71%
    02:00 +16°C° 0 mm 1 mps 752 mmHg 74%
    03:00 +15°C° 0 mm 1 mps 751 mmHg 76%
    04:00 +15°C° 0 mm 1 mps 751 mmHg 76%
    05:00 +15°C° 0 mm 1 mps 752 mmHg 77%
    06:00 +15°C° 0 mm 1 mps 752 mmHg 78%
    07:00 +18°C° 0 mm 1 mps 752 mmHg 69%
    08:00 +20°C° 0 mm 1 mps 752 mmHg 60%
    09:00 +22°C° 0 mm 1 mps 752 mmHg 51%
    10:00 +24°C° 0 mm 1 mps 752 mmHg 47%
    11:00 +26°C° 0 mm 1 mps 752 mmHg 42%
    12:00 +27°C° 0 mm 2 mps 751 mmHg 38%
    13:00 +28°C° 0 mm 2 mps 751 mmHg 38%
    14:00 +28°C° 0 mm 3 mps 751 mmHg 38%
    15:00 +29°C° 0 mm 4 mps 750 mmHg 38%
    16:00 +27°C° 0 mm 4 mps 750 mmHg 44%
    17:00 +26°C° 0 mm 4 mps 750 mmHg 51%
    18:00 +23°C° 0 mm 4 mps 750 mmHg 57%
    19:00 +22°C° 0 mm 4 mps 750 mmHg 61%
    20:00 +21°C° 0 mm 3 mps 750 mmHg 66%
    21:00 +19°C° 0 mm 2 mps 750 mmHg 70%
    22:00 +19°C° 0 mm 3 mps 750 mmHg 69%
    23:00 +18°C° 0 mm 3 mps 750 mmHg 68%
    Show more